INTELSAT 905 (IS-905) (27438 NORAD) Tracking and Keplerian Element Data

This shows tracking and keplerian element data for the satellite.

Feedback or suggestion? Click here.




ElementValue
Catalog27438
NameINTELSAT 905 (IS-905)
Epoch Orbit2240
Epoch Day201.32732833
Epoch Year2018
RAAN180.5407
Inclination0.0286
Eccentricity0.0002574
Argument of Perigee275.9452
Mean Anonmoly294.8891
Mean Motion1.0027176
Decay Rate-2.01E-06
L11 27438U 02027A 18201.32732833 -.00000201 00000-0 00000-0 0 9992
L22 27438 0.0286 180.5407 0002574 275.9452 294.8891 1.00271760 22402

Live tracking and technical data element details for INTELSAT 905 (IS-905) (NORAD 27438). INTELSAT 905 (IS-905) can be tracked NOW for your location showing map with azimuth and elevation plus other details from your city location.

Track the satellite on the map from your city or location and see movement details for azimuth, elevation, latitude, longitude, range, height, and movement on the map or in text.







IsCatalogInMostPopularTable: catalog: 27438, numindb: 51
Update: records affected: 1



GetName: 27438 INTELSAT 905 (IS-905)

Hit Count: updated at: Sat, 21 Jul 2018 07:55:34 GMT